Regional Weather Roundup
Issued by NWS

Home | Current Version | Previous Version | Graphics & Text | Print | Product List | Glossary On
Versions: 1 2 3 4 5 6 7 8 9 10 11 12 13 14 15 16 17 18 19 20 21 22 23 24 25 26 27 28 29 30 31 32 33 34 35 36 37 38 39 40 41 42 43 44 45 46 47 48 49 50
000
ASUS43 KDTX 051910
RWRMI
MICHIGAN HOURLY REGIONAL WEATHER ROUNDUP
NATIONAL WEATHER SERVICE DETROIT/PONTIAC MI
200 PM EST THU MAR 05 2015

NOTE: "FAIR" INDICATES FEW OR NO CLOUDS BELOW 12,000 FEET WITH NO
SIGNIFICANT WEATHER AND/OR OBSTRUCTION TO VISIBILITY.

MIZ047>049-052>055-059>063-066>070-074>076-081>083-052000-
SOUTHEAST LOWER MICHIGAN

CITY           SKY/WX    TMP DP  RH WIND       PRES   REMARKS
ADRIAN         CLOUDY    17   0  47 NW10      30.39F WCI   5
ALMA           PTSUNNY   14  -2  50 W9        30.40F WCI   1
ANN ARBOR      MOSUNNY   17  -1  45 NW14      30.38F WCI   3
BAD AXE        SUNNY     11  -4  51 W5        30.39F WCI   3
CARO           SUNNY     13  -3  49 NW5       30.40F WCI   5
DETROIT CITY   SUNNY     19  -2  39 NW7       30.38F WCI  10
DETROIT        MOSUNNY   18   0  45 NW13G18   30.39F WCI   5
FLINT          SUNNY     14  -3  47 NW12      30.40F WCI   0
GROSSE ILE     PTSUNNY   19  -2  38 NW15G21   30.38S WCI   5
HILLSDALE      MOSUNNY   16   1  51 NW10G17   30.36S WCI   4
HOWELL         MOSUNNY   14  -2  50 W12       30.37F WCI   0

CITY           SKY/WX    TMP DP  RH WIND       PRES   REMARKS
JACKSON        MOSUNNY   16   1  51 N10       30.37F WCI   4
LAMBERTVILLE   SUNNY     19   1  45 N7        30.40F WCI  10
LANSING        SUNNY     15  -1  49 W12G20    30.40F WCI   2
LAPEER         FAIR      12  -6  44 N10G18    30.38S WCI  -1
MASON          PTSUNNY   16  -1  47 W9        30.39S WCI   5
MONROE         PTSUNNY   18   3  53 W9        30.38S WCI   6
MT. CLEMENS    MOSUNNY   15  -3  45 N9        30.36F WCI   3
PONTIAC        MOSUNNY   14  -3  47 NW17G24   30.35F WCI  -3
PORT HOPE        N/A     12  -2  53 W10       30.37F WCI  -1
PORT HURON     SUNNY     12  -8  40 W9        30.38F WCI   0
TRI CITIES     SUNNY     15  -3  44 NW10      30.40F WCI   2
TROY           SUNNY     19  -5  34 W10G18    30.39F WCI   7
SAGINAW HB     SUNNY     14  -2  48 W3        30.40F
$$
MIZ043>046-050>051-056>058-064>065-071>073-077>080-052000-
SOUTHWEST LOWER MICHIGAN

CITY           SKY/WX    TMP DP  RH WIND       PRES   REMARKS
BATTLE CREEK   MOSUNNY   18   1  47 NW10      30.39F WCI   6
BENTON HARBOR  PTSUNNY   18   6  59 W8        30.43F WCI   8
BIG RAPIDS     CLOUDY    16   2  55 W7        30.37S WCI   6
COLDWATER      PTSUNNY   17   2  51 W7        30.39S WCI   8
FREMONT        CLOUDY    15   0  51 W10       30.40F WCI   3
HOLLAND        CLOUDY    19   3  49 NW12      30.44S WCI   7
GRAND RAPIDS   PTSUNNY   16   0  49 NW12      30.41F WCI   3
IONIA          MOCLDY    17   1  50 SW5       30.39F WCI   9
KALAMAZOO      PTSUNNY   19   2  47 NW7       30.40F WCI  10
LUDINGTON      LGT SNOW  13   4  65 NW7       30.44S WCI   3
MARSHALL       PTSUNNY   17   1  48 W5        30.38F WCI  10
MOUNT PLEASANT PTSUNNY   15  -1  49 W7        30.39F WCI   5
MUSKEGON       LGT SNOW  15   6  67 W9        30.44F WCI   3
SOUTH HAVEN    SUNNY     20   5  52 N6        30.43S WCI  12
$$
MIZ016>042-052000-
NORTHERN LOWER MICHIGAN

CITY           SKY/WX    TMP DP  RH WIND       PRES   REMARKS
ALPENA         PTSUNNY   15  -2  46 VRB3      30.36F
BEAVER ISLAND  SUNNY     11  -2  55 W8        30.39F WCI  -1
BELLAIRE       MOSUNNY   13  -4  47 NW7       30.41F WCI   3
CADILLAC       CLOUDY    13  -1  54 W6        30.32F WCI   3
CHARLEVOIX     SUNNY     10  -1  60 CALM      30.43F
FRANKFORT      CLOUDY    12   4  70 NW13      30.42F WCI  -3
GAYLORD        SUNNY     10  -5  50 NW6       30.31F WCI   0
GRAYLING       SUNNY     13  -4  45 W8G16     30.33F WCI   2
HARBOR SPRINGS SUNNY      8  -1  67 SW8       30.39F WCI  -5
HOUGHTON LAKE  MOSUNNY   13  -3  49 W7        30.33F WCI   3
MANISTEE       CLOUDY    12   0  57 NW12      30.43S WCI  -2
OSCODA         CLOUDY    16  -3  43 CALM      30.36S
PELLSTON       SUNNY     10  -5  50 NW13      30.38F WCI  -5
ROGERS CITY    SUNNY     10   0  63 N9        30.38F WCI  -2
TRAVERSE CITY  CLOUDY    12   1  61 NE6       30.39F WCI   3
$$
MIZ007>008-015-052000-
EASTERN UPPER MICHIGAN

CITY           SKY/WX    TMP DP  RH WIND       PRES   REMARKS
KINROSS        MOSUNNY   18  -6  35 NW6       30.33F WCI   9
MACKINAC ISLAN SUNNY      7  -2  64 W9        30.37F WCI  -6
NEWBERRY       CLOUDY    10  -2  58 W12       30.34F WCI  -4
S. S. MARIE    SUNNY     11  -8  42 NW6       30.35F WCI   1
MUNISING         N/A     12  -3  51 NW10      30.37F WCI  -1
$$
MIZ004>006-011>014-085-052000-
CENTRAL UPPER MICHIGAN

CITY           SKY/WX    TMP DP  RH WIND       PRES   REMARKS
MANISTIQUE     MOSUNNY   12  -3  50 S8        30.36F WCI   1
ESCANABA       SUNNY     10  -2  56 S12G18    30.39F WCI  -4
MENOMINEE      SUNNY     12  -6  44 W9G16     30.40F WCI   0
SAWYER-GWINN   MOSUNNY   10  -6  48 W8        30.30F WCI  -1
$$
MIZ001>003-009>011-084-052000-
WESTERN UPPER MICHIGAN

CITY           SKY/WX    TMP DP  RH WIND       PRES   REMARKS
IRON MOUNTAIN  SUNNY     13  -6  42 W9        30.31F WCI   1
HOUGHTON       PTSUNNY    7  -3  64 W18       30.31F WCI -12
COPPER HARBOR    N/A     12  -1  56 N16       30.34F WCI  -5
IRONWOOD       SUNNY      9  -9  43 W10       30.32F WCI  -6
$$

ABBREVIATIONS USED IN REMARKS
   TC - TEMPERATURE IN CELSIUS
  WCI - WIND CHILL INDEX
   HX - HEAT INDEX
  VSB - VISIBILITY



USA.gov is the U.S. government's official web portal to all federal, state and local government web resources and services.